GW7662 Weather Reports


Display with metric or nautical units.
time (UTC)temp
F
wind
direction
speed
MPH
gust
MPH
rain 1hr
in
rain 24hr
in
rain mn
in
humidity
%
barometer
mb
20260905214500 94 292 6.0 6.0 0.00 0.00 0.00 48 1010.2
20260905214000 94 0 0.0 6.0 0.00 0.00 0.00 49 1010.5
20260905213500 93 67 4.0 7.0 0.00 0.00 0.00 48 1010.5
20260905213000 93 292 5.0 7.0 0.00 0.00 0.00 48 1010.5
20260905212500 93 225 1.0 7.0 0.00 0.00 0.00 48 1010.5
20260905212000 94 0 0.0 7.0 0.00 0.00 0.00 48 1010.5
20260905211500 94 292 2.0 5.0 0.00 0.00 0.00 47 1010.5
20260905211000 94 292 4.0 6.0 0.00 0.00 0.00 48 1010.5
20260905210500 94 292 1.0 7.0 0.00 0.00 0.00 46 1010.8
20260905210000 94 292 6.0 7.0 0.00 0.00 0.00 47 1010.8
20260905205500 94 292 5.0 7.0 0.00 0.00 0.00 46 1010.8
20260905205000 94 292 3.0 6.0 0.00 0.00 0.00 47 1010.8
20260905204500 93 292 6.0 8.0 0.00 0.00 0.00 48 1010.8
20260905204000 94 22 1.0 8.0 0.00 0.00 0.00 48 1010.8
20260905203500 94 292 2.0 7.0 0.00 0.00 0.00 49 1010.8
20260905203000 93 0 0.0 9.0 0.00 0.00 0.00 48 1011.2
20260905202500 94 22 4.0 9.0 0.00 0.00 0.00 48 1011.2
20260905202000 94 67 3.0 9.0 0.00 0.00 0.00 47 1011.2
20260905201500 94 22 9.0 9.0 0.00 0.00 0.00 47 1011.2
20260905201000 94 225 8.0 9.0 0.00 0.00 0.00 48 1011.2
20260905200500 94 180 2.0 10.0 0.00 0.00 0.00 50 1011.5
20260905200000 95 180 3.0 10.0 0.00 0.00 0.00 50 1011.5
20260905195500 95 292 3.0 7.0 0.00 0.00 0.00 50 1011.5
20260905195000 94 225 2.0 11.0 0.00 0.00 0.00 50 1011.5
20260905194500 95 67 4.0 11.0 0.00 0.00 0.00 48 1011.5
20260905194000 96 67 2.0 9.0 0.00 0.00 0.00 48 1011.9
20260905193500 96 270 3.0 9.0 0.00 0.00 0.00 47 1011.9
20260905193000 96 225 1.0 7.0 0.00 0.00 0.00 48 1011.9
20260905192500 96 247 3.0 6.0 0.00 0.00 0.00 48 1011.9
20260905192000 95 225 2.0 9.0 0.00 0.00 0.00 48 1011.9
20260905191500 95 247 1.0 9.0 0.00 0.00 0.00 48 1012.2
20260905191000 95 180 2.0 7.0 0.00 0.00 0.00 49 1012.2
20260905190500 95 112 1.0 7.0 0.00 0.00 0.00 49 1012.2
20260905190000 94 292 4.0 8.0 0.00 0.00 0.00 49 1012.2
20260905185500 95 22 7.0 8.0 0.00 0.00 0.00 48 1012.5
20260905185000 96 22 6.0 8.0 0.00 0.00 0.00 46 1012.5
20260905184500 97 22 5.0 7.0 0.00 0.00 0.00 47 1012.5
20260905184000 97 180 4.0 8.0 0.00 0.00 0.00 47 1012.9
20260905183500 97 247 2.0 8.0 0.00 0.00 0.00 48 1012.9
20260905183000 97 0 0.0 7.0 0.00 0.00 0.00 48 1012.9
20260905182500 96 247 3.0 7.0 0.00 0.00 0.00 50 1012.9
20260905182000 96 247 2.0 7.0 0.00 0.00 0.00 49 1012.9
20260905181500 96 157 1.0 8.0 0.00 0.00 0.00 51 1012.9
20260905181000 95 22 1.0 8.0 0.00 0.00 0.00 51 1013.2
20260905180500 96 67 2.0 7.0 0.00 0.00 0.00 49 1013.2
20260905180000 96 180 1.0 11.0 0.00 0.00 0.00 50 1013.2
20260905175500 96 225 3.0 11.0 0.00 0.00 0.00 51 1013.2
20260905175000 95 157 1.0 8.0 0.00 0.00 0.00 50 1013.2
20260905174500 94 292 4.0 8.0 0.00 0.00 0.00 50 1013.2
20260905174000 95 112 5.0 7.0 0.00 0.00 0.00 50 1013.5
20260905173500 95 112 4.0 6.0 0.00 0.00 0.00 50 1013.5
20260905173000 95 180 3.0 9.0 0.00 0.00 0.00 51 1013.5
20260905172500 94 270 3.0 9.0 0.00 0.00 0.00 52 1013.5
20260905172000 93 0 0.0 6.0 0.00 0.00 0.00 52 1013.5
20260905171500 93 112 3.0 6.0 0.00 0.00 0.00 52 1013.5
20260905171000 94 112 2.0 5.0 0.00 0.00 0.00 53 1013.9
20260905170500 94 180 4.0 7.0 0.00 0.00 0.00 56 1013.5
20260905170000 93 225 2.0 7.0 0.00 0.00 0.00 55 1013.9
20260905165500 93 225 4.0 7.0 0.00 0.00 0.00 56 1013.9
20260905165000 92 180 3.0 7.0 0.00 0.00 0.00 56 1014.2
20260905164500 92 180 4.0 7.0 0.00 0.00 0.00 60 1014.2
20260905164000 91 180 2.0 7.0 0.00 0.00 0.00 56 1014.2
20260905163500 91 112 4.0 7.0 0.00 0.00 0.00 56 1014.2
20260905163000 91 0 0.0 7.0 0.00 0.00 0.00 58 1014.2
20260905162500 90 180 3.0 7.0 0.00 0.00 0.00 60 1014.2
20260905162000 90 112 3.0 6.0 0.00 0.00 0.00 59 1014.2
20260905161500 90 157 2.0 6.0 0.00 0.00 0.00 61 1014.2
20260905161000 89 292 3.0 7.0 0.00 0.00 0.00 61 1014.2
20260905160500 89 22 3.0 7.0 0.00 0.00 0.00 64 1014.2
20260905160000 88 225 2.0 8.0 0.00 0.00 0.00 65 1014.2
20260905155500 87 67 5.0 8.0 0.00 0.00 0.00 63 1014.2
20260905155000 87 112 3.0 7.0 0.00 0.00 0.00 64 1014.2
20260905154500 87 112 1.0 8.0 0.00 0.00 0.00 64 1014.2
20260905154000 87 157 3.0 8.0 0.00 0.00 0.00 64 1014.2
20260905153500 87 112 2.0 6.0 0.00 0.00 0.00 66 1014.2
20260905153000 86 225 2.0 5.0 0.00 0.00 0.00 70 1014.6
20260905152500 86 157 3.0 5.0 0.00 0.00 0.00 70 1014.2
20260905152000 85 112 3.0 8.0 0.00 0.00 0.00 72 1014.2
20260905151500 84 112 3.0 8.0 0.00 0.00 0.00 73 1014.2
20260905151000 84 67 4.0 9.0 0.00 0.00 0.00 74 1014.6
20260905150500 83 67 2.0 9.0 0.00 0.00 0.00 75 1014.2
20260905150000 84 112 6.0 7.0 0.00 0.00 0.00 74 1014.2
20260905145500 83 112 6.0 7.0 0.00 0.00 0.00 76 1014.2
20260905145000 82 112 4.0 9.0 0.00 0.00 0.00 77 1014.2
20260905144500 82 112 3.0 9.0 0.00 0.00 0.00 77 1014.2
20260905144000 81 247 6.0 8.0 0.00 0.00 0.00 79 1014.6
20260905143500 81 157 3.0 6.0 0.00 0.00 0.00 80 1014.2
20260905143000 81 67 6.0 10.0 0.00 0.00 0.00 80 1014.6
20260905142500 80 292 3.0 10.0 0.00 0.00 0.00 79 1014.2
20260905142000 80 22 5.0 7.0 0.00 0.00 0.00 79 1014.2
20260905141500 80 112 4.0 5.0 0.00 0.00 0.00 78 1014.2
20260905141000 80 112 2.0 5.0 0.00 0.00 0.00 79 1014.2
20260905140500 80 112 3.0 5.0 0.00 0.00 0.00 79 1014.2
20260905140000 81 22 5.0 5.0 0.00 0.00 0.00 76 1014.2
20260905135500 80 22 5.0 7.0 0.00 0.00 0.00 76 1014.2
20260905135000 80 67 2.0 10.0 0.00 0.00 0.00 76 1014.2
20260905134500 80 112 4.0 10.0 0.00 0.00 0.00 77 1014.2
20260905134000 80 22 3.0 7.0 0.00 0.00 0.00 78 1014.2
20260905133500 79 337 4.0 8.0 0.00 0.00 0.00 79 1014.2
20260905133000 79 67 3.0 8.0 0.00 0.00 0.00 79 1014.2
20260905132500 79 22 2.0 7.0 0.00 0.00 0.00 81 1014.2
20260905132000 79 22 3.0 7.0 0.00 0.00 0.00 80 1014.2
20260905131500 78 22 3.0 5.0 0.00 0.00 0.00 82 1014.2
20260905131000 78 157 2.0 5.0 0.00 0.00 0.00 83 1014.2
20260905130500 78 67 1.0 3.0 0.00 0.00 0.00 83 1014.2
20260905130000 79 292 2.0 4.0 0.00 0.00 0.00 81 1014.2
20260905125500 79 22 2.0 4.0 0.00 0.00 0.00 81 1014.2
20260905125000 79 22 3.0 4.0 0.00 0.00 0.00 81 1014.2
20260905124500 79 67 2.0 5.0 0.00 0.00 0.00 81 1014.2
20260905124000 79 22 4.0 5.0 0.00 0.00 0.00 81 1014.2
20260905123500 78 292 3.0 6.0 0.00 0.00 0.00 81 1014.2
20260905123000 78 22 4.0 6.0 0.00 0.00 0.00 82 1014.2
20260905122500 78 22 4.0 6.0 0.00 0.00 0.00 83 1013.9
20260905122000 78 22 5.0 6.0 0.00 0.00 0.00 84 1013.9
20260905121500 77 22 4.0 4.0 0.00 0.00 0.00 85 1014.2
20260905121000 77 22 3.0 4.0 0.00 0.00 0.00 85 1013.9
20260905120500 77 292 2.0 4.0 0.00 0.00 0.00 85 1013.9
20260905120000 77 292 3.0 3.0 0.00 0.00 0.00 85 1013.9
20260905115500 77 0 0.0 2.0 0.00 0.00 0.00 85 1013.9
20260905115000 78 0 0.0 2.0 0.00 0.00 0.00 82 1013.9
20260905113500 78 67 2.0 2.0 0.00 0.00 0.00 82 1013.5
20260905113000 78 0 0.0 2.0 0.00 0.00 0.00 82 1013.5
20260905112500 78 67 1.0 2.0 0.00 0.00 0.00 82 1013.5
20260905112000 78 0 0.0 2.0 0.00 0.00 0.00 82 1013.2
20260905111500 78 0 0.0 2.0 0.00 0.00 0.00 82 1013.2
20260905111000 78 67 1.0 2.0 0.00 0.00 0.00 82 1013.2
20260905110500 78 0 0.0 2.0 0.00 0.00 0.00 82 1013.2
20260905110000 78 0 0.0 1.0 0.00 0.00 0.00 82 1012.9
20260905105500 78 0 0.0 2.0 0.00 0.00 0.00 81 1013.2
20260905105000 78 0 0.0 3.0 0.00 0.00 0.00 81 1012.9
20260905104500 78 22 1.0 3.0 0.00 0.00 0.00 81 1012.9
20260905104000 78 22 2.0 3.0 0.00 0.00 0.00 81 1012.9
20260905103500 78 0 0.0 0.0 0.00 0.00 0.00 80 1012.9
20260905103000 78 0 0.0 0.0 0.00 0.00 0.00 79 1012.9
20260905102500 78 0 0.0 0.0 0.00 0.00 0.00 79 1012.9
20260905102000 79 0 0.0 0.0 0.00 0.00 0.00 79 1012.9
20260905101500 79 0 0.0 1.0 0.00 0.00 0.00 79 1013.2
20260905101000 79 0 0.0 2.0 0.00 0.00 0.00 78 1012.9
20260905100500 79 67 1.0 2.0 0.00 0.00 0.00 78 1012.9
20260905100000 79 67 2.0 2.0 0.00 0.00 0.00 78 1012.9
20260905095500 79 0 0.0 3.0 0.00 0.00 0.00 77 1012.9
20260905095000 80 22 3.0 4.0 0.00 0.00 0.00 77 1012.9
20260905094500 80 22 2.0 4.0 0.00 0.00 0.00 76 1012.5
20260905094000 80 67 2.0 5.0 0.00 0.00 0.00 76 1012.5
20260905093500 80 22 2.0 5.0 0.00 0.00 0.00 76 1012.5
20260905093000 80 292 2.0 5.0 0.00 0.00 0.00 76 1012.5
20260905092500 80 67 3.0 5.0 0.00 0.00 0.00 76 1012.5
20260905092000 80 292 4.0 6.0 0.00 0.00 0.00 76 1012.5
20260905091500 80 22 3.0 6.0 0.00 0.00 0.00 77 1012.5
20260905091000 79 292 5.0 5.0 0.00 0.00 0.00 78 1012.5
20260905090500 79 67 2.0 4.0 0.00 0.00 0.00 79 1012.2
20260905090000 79 22 2.0 4.0 0.00 0.00 0.00 80 1012.5
20260905085500 79 0 0.0 2.0 0.00 0.00 0.00 81 1012.5
20260905085000 79 0 0.0 0.0 0.00 0.00 0.00 81 1012.5
20260905084500 79 0 0.0 0.0 0.00 0.00 0.00 81 1012.5
20260905084000 79 0 0.0 2.0 0.00 0.00 0.00 81 1012.2
20260905083500 79 0 0.0 3.0 0.00 0.00 0.00 81 1012.5
20260905083000 79 180 1.0 3.0 0.00 0.00 0.00 82 1012.5
20260905082500 79 180 2.0 4.0 0.00 0.00 0.00 82 1012.5
20260905082000 79 180 2.0 4.0 0.00 0.00 0.00 82 1012.5
20260905081500 79 0 0.0 2.0 0.00 0.00 0.00 82 1012.5
20260905081000 79 180 1.0 3.0 0.00 0.00 0.00 82 1012.5
20260905080500 79 180 2.0 3.0 0.00 0.00 0.00 83 1012.5
20260905080000 78 0 0.0 2.0 0.00 0.00 0.00 83 1012.5
20260905075500 78 0 0.0 2.0 0.00 0.00 0.00 83 1012.5
20260905075000 78 0 0.0 2.0 0.00 0.00 0.00 83 1012.5
20260905074500 78 0 0.0 2.0 0.00 0.00 0.00 84 1012.5
20260905074000 78 0 0.0 2.0 0.00 0.00 0.00 85 1012.5
20260905073500 78 180 1.0 2.0 0.00 0.00 0.00 85 1012.5
20260905073000 78 0 0.0 4.0 0.00 0.00 0.00 85 1012.5
20260905072500 78 0 0.0 4.0 0.00 0.00 0.00 85 1012.5
20260905072000 78 202 1.0 1.0 0.00 0.00 0.00 84 1012.5
20260905071500 79 0 0.0 0.0 0.00 0.00 0.00 83 1012.5
20260905071000 79 0 0.0 0.0 0.00 0.00 0.00 83 1012.9
20260905070500 79 0 0.0 0.0 0.00 0.00 0.00 83 1012.9
20260905070000 79 0 0.0 0.0 0.00 0.00 0.00 83 1012.9
20260905065500 79 0 0.0 0.0 0.00 0.00 0.00 84 1012.9
20260905065000 79 0 0.0 0.0 0.00 0.00 0.00 84 1012.9
20260905064500 79 0 0.0 1.0 0.00 0.00 0.00 85 1012.9
20260905064000 79 0 0.0 1.0 0.00 0.00 0.00 85 1012.9
20260905063500 79 0 0.0 0.0 0.00 0.00 0.00 86 1012.9
20260905063000 79 0 0.0 2.0 0.00 0.00 0.00 86 1013.2
20260905062500 79 0 0.0 2.0 0.00 0.00 0.00 86 1013.2
20260905062000 79 157 1.0 2.0 0.00 0.00 0.00 85 1013.2
20260905061500 79 0 0.0 2.0 0.00 0.00 0.00 85 1013.2
20260905061000 79 0 0.0 3.0 0.00 0.00 0.00 85 1013.2
20260905060500 79 0 0.0 3.0 0.00 0.00 0.00 85 1013.2
20260905060000 79 22 1.0 1.0 0.00 0.00 0.00 84 1013.2
20260905055500 80 0 0.0 0.0 0.00 0.00 0.00 84 1013.2
20260905055000 80 0 0.0 1.0 0.00 0.00 0.00 83 1013.2
20260905054500 80 0 0.0 2.0 0.00 0.00 0.00 83 1013.2
20260905054000 80 0 0.0 2.0 0.00 0.00 0.00 83 1013.2
20260905053500 80 0 0.0 0.0 0.00 0.00 0.00 82 1013.2
20260905053000 80 0 0.0 0.0 0.00 0.00 0.00 81 1013.2
20260905052500 80 0 0.0 0.0 0.00 0.00 0.00 81 1013.2
20260905052000 80 0 0.0 0.0 0.00 0.00 0.00 81 1013.2
20260905051500 81 0 0.0 0.0 0.00 0.00 0.00 80 1013.2
20260905051000 80 0 0.0 0.0 0.00 0.00 0.00 79 1013.2
20260905050500 81 0 0.0 0.0 0.00 0.00 0.00 79 1013.2
20260905050000 81 0 0.0 0.0 0.00 0.00 0.00 80 1013.2
20260905045500 81 0 0.0 0.0 0.00 0.00 0.00 80 1013.2
20260905045000 81 0 0.0 0.0 0.00 0.00 0.00 80 1013.2
20260905044502 81 0 0.0 0.0 0.00 0.00 0.00 81 1013.2
20260905044000 81 0 0.0 0.0 0.00 0.00 0.00 81 1013.2
20260905043500 81 0 0.0 0.0 0.00 0.00 0.00 80 1013.2
20260905043000 81 0 0.0 0.0 0.00 0.00 0.00 80 1013.2
20260905042500 81 0 0.0 0.0 0.00 0.00 0.00 81 1013.5
20260905042000 81 0 0.0 0.0 0.00 0.00 0.00 81 1013.2
20260905041500 81 0 0.0 0.0 0.00 0.00 0.00 82 1013.2
20260905041000 81 0 0.0 0.0 0.00 0.00 0.00 82 1013.5
20260905040500 80 0 0.0 0.0 0.00 0.00 0.00 82 1013.5
20260905040000 80 0 0.0 0.0 0.00 0.00 0.00 82 1013.5
20260905035500 80 0 0.0 0.0 0.00 0.00 0.00 81 1013.5
20260905035000 80 0 0.0 1.0 0.00 0.00 0.00 81 1013.5
20260905034500 80 0 0.0 1.0 0.00 0.00 0.00 80 1013.5
20260905034000 81 180 1.0 1.0 0.00 0.00 0.00 80 1013.5
20260905033500 81 0 0.0 5.0 0.00 0.00 0.00 79 1013.5
20260905033000 81 157 1.0 5.0 0.00 0.00 0.00 79 1013.5
20260905032500 81 180 5.0 5.0 0.00 0.00 0.00 77 1013.9
20260905032000 81 0 0.0 0.0 0.00 0.00 0.00 76 1013.5
20260905031500 81 0 0.0 0.0 0.00 0.00 0.00 77 1013.5
20260905031000 82 0 0.0 0.0 0.00 0.00 0.00 77 1013.5
20260905030500 82 0 0.0 0.0 0.00 0.00 0.00 74 1013.5
20260905030000 82 0 0.0 0.0 0.00 0.00 0.00 73 1013.5
20260905025500 82 0 0.0 0.0 0.00 0.00 0.00 74 1013.5
20260905025000 82 0 0.0 0.0 0.00 0.00 0.00 74 1013.5
20260905024500 82 0 0.0 0.0 0.00 0.00 0.00 74 1013.5
20260905024000 82 0 0.0 0.0 0.00 0.00 0.00 74 1013.5
20260905023500 82 0 0.0 0.0 0.00 0.00 0.00 74 1013.5
20260905023000 83 0 0.0 0.0 0.00 0.00 0.00 74 1013.5
20260905022500 83 0 0.0 0.0 0.00 0.00 0.00 75 1013.5
20260905022000 83 0 0.0 0.0 0.00 0.00 0.00 74 1013.5
20260905021500 83 0 0.0 2.0 0.00 0.00 0.00 74 1013.5
20260905021000 83 0 0.0 2.0 0.00 0.00 0.00 74 1013.5
20260905020500 83 22 1.0 2.0 0.00 0.00 0.00 73 1013.2
20260905020000 83 0 0.0 0.0 0.00 0.00 0.00 73 1013.2
20260905015500 83 0 0.0 0.0 0.00 0.00 0.00 72 1013.2
20260905015000 83 0 0.0 0.0 0.00 0.00 0.00 73 1013.2
20260905014500 83 0 0.0 0.0 0.00 0.00 0.00 73 1013.2
20260905014000 83 0 0.0 0.0 0.00 0.00 0.00 73 1013.2
20260905013500 83 0 0.0 0.0 0.00 0.00 0.00 74 1013.2
20260905013000 83 0 0.0 0.0 0.00 0.00 0.00 74 1012.9
20260905012500 84 0 0.0 0.0 0.00 0.00 0.00 74 1012.9
20260905012000 84 0 0.0 0.0 0.00 0.00 0.00 74 1012.9
20260905011500 84 0 0.0 0.0 0.00 0.00 0.00 74 1012.9
20260905011000 84 0 0.0 0.0 0.00 0.00 0.00 73 1012.9
20260905010500 84 0 0.0 0.0 0.00 0.00 0.00 74 1012.9
20260905010000 84 0 0.0 0.0 0.00 0.00 0.00 74 1012.9
20260905005500 84 0 0.0 0.0 0.00 0.00 0.00 75 1012.9
20260905005000 84 0 0.0 0.0 0.00 0.00 0.00 74 1012.9
20260905004500 84 0 0.0 0.0 0.00 0.00 0.00 74 1012.9
20260905004000 85 0 0.0 0.0 0.00 0.00 0.00 74 1012.9
20260905003500 85 0 0.0 0.0 0.00 0.00 0.00 74 1012.9
20260905003000 85 0 0.0 0.0 0.00 0.00 0.00 75 1012.9
20260905002500 85 0 0.0 1.0 0.00 0.00 0.00 74 1012.9
20260905002000 86 0 0.0 1.0 0.00 0.00 0.00 72 1012.9
20260905001500 87 0 0.0 0.0 0.00 0.00 0.00 67 1012.9
20260905001000 88 0 0.0 0.0 0.00 0.00 0.00 67 1012.9
20260905000500 88 0 0.0 0.0 0.00 0.00 0.00 66 1012.9
20260905000000 88 0 0.0 0.0 0.00 0.00 0.00 65 1012.9
20260904235500 89 0 0.0 0.0 0.00 0.00 0.00 63 1012.9
20260904235000 89 0 0.0 0.0 0.00 0.00 0.00 61 1012.9
20260904234500 89 0 0.0 0.0 0.00 0.00 0.00 60 1012.9
20260904234000 90 0 0.0 0.0 0.00 0.00 0.00 60 1012.9
20260904233500 90 0 0.0 0.0 0.00 0.00 0.00 60 1012.9
20260904233000 91 0 0.0 0.0 0.00 0.00 0.00 58 1012.9
20260904232500 91 0 0.0 0.0 0.00 0.00 0.00 57 1012.9
20260904232000 91 0 0.0 0.0 0.00 0.00 0.00 56 1012.9
20260904231500 92 0 0.0 0.0 0.00 0.00 0.00 56 1012.9
20260904231000 92 0 0.0 0.0 0.00 0.00 0.00 55 1012.9
20260904230500 92 0 0.0 0.0 0.00 0.00 0.00 56 1012.9
20260904230000 91 0 0.0 0.0 0.00 0.00 0.00 58 1012.9
20260904225500 92 0 0.0 0.0 0.00 0.00 0.00 56 1012.9
20260904225000 92 0 0.0 0.0 0.00 0.00 0.00 56 1012.9
20260904224500 92 0 0.0 1.0 0.00 0.00 0.00 55 1012.9
20260904224000 93 0 0.0 3.0 0.00 0.00 0.00 54 1012.9
20260904223500 93 0 0.0 4.0 0.00 0.00 0.00 52 1012.9
20260904223000 93 112 3.0 4.0 0.00 0.00 0.00 51 1012.9
20260904222500 93 157 1.0 6.0 0.00 0.00 0.00 51 1012.9
20260904222000 93 67 6.0 6.0 0.00 0.00 0.00 51 1012.9
20260904221500 93 337 3.0 5.0 0.00 0.00 0.00 50 1012.9
20260904221000 94 22 2.0 5.0 0.00 0.00 0.00 50 1012.9
20260904220500 94 157 2.0 4.0 0.00 0.00 0.00 50 1012.9
20260904220000 93 157 1.0 6.0 0.00 0.00 0.00 49 1012.9
20260904215500 93 22 3.0 6.0 0.00 0.00 0.00 48 1012.9
20260904215000 93 67 3.0 6.0 0.00 0.00 0.00 49 1012.9